Location: Newark
(35.8833°N, 14.5000°E)
Time: 07:29:21
(UTC+00:00)

BEESAT - Pass Details

Date: 15 November 2019
Orbit: 701 x 709 km, 98.6° (Epoch: 15 December)

Event Time Altitude Azimuth Distance (km) Brightness Sun altitude
Rises 02:26:10 0° 121° (ESE) 3,082 ? -38.8°
Reaches altitude 10° 02:29:19 10° 99° (E) 2,167 ? -38.2°
Maximum altitude 02:31:57 15° 65° (ENE) 1,851 ? -37.6°
Enters shadow 02:33:56 12° 38° (NE) 2,041 ? -37.2°
